Main page
METAR-TAF:

METAR-TAF

Airports :

New Smyrna Beach Municipal Airport

New Smyrna Beach, Florida, United States

latitude: 29-03-20N, longitude: 080-56-54W, elevation: 10 ft

Current weather observation

The report was made 1 hour and 9 minutes ago, at 20:47 UTC
Wind 17 mph from the Southeast
Temperature 79°F
Humidity 70%
Pressure 30.17 in. Hg
Visibility: 10 miles

METAR: KEVB 272047Z 14015KT 10SM SCT45 26/20 A3017

Time: 16:56 (21:56 UTC)


TAF: missing

Weather observations and forecasts of more than 4000 airports (METAR and TAF reports).

The available stations are represented by yellow and red dots on the map.

Hover mouse over dot to see the name of the station.

Then click to see weather observations and forecasts.

To change the map : click on the green buttons with a black cross to zoom in, on the green button with a dash to zoom out, or on the green arrows for adjacent maps.


METAR-TAF: